カタログに戻る

IRIDIUM 33 DEB

運用中PO
NORAD 34765·DEBRIS·🇺🇸 United States

打ち上げ Sep 14, 1997 から Baikonur Cosmodrome

Loading…

次のパス (今後24時間)

TLE

最新Source: Space-Track

元期: Sep 14, 2026, 11:59 UTC

1 34765U 97051LJ  26257.49979128  .00000716  00000-0  21590-3 0  9992
2 34765  86.3330 274.3703 0017450  36.9169 115.6710 14.41099063915842

AllMySatでIRIDIUM 33 DEBをリアルタイム追跡

Download on the App Store